If you wish to contribute or participate in the discussions about articles you are invited to join SKYbrary as a registered user

 Actions

Ancona Airport

From SKYbrary Wiki

LIPY
Airport
ICAO: LIPY – IATA: AOI
Summary
Name Ancona Airport
Region Europe
Territory Italy IT.gif
Location Falconara, Marche
Serving Ancona
Elevation 14.935 m
49 ft
49 ft14.935 m
Coordinates 43° 37' 0.00" N, 13° 21' 36.00" E
Runways
Designator Length Width Surface ROPS
4/22 2962 m9,717.848 ft
45 m147.638 ft
ASP yes/yes


METAR
Observation LIPY 132150Z VRB01KT 8000 -RA SCT020 BKN035 05/04 Q1012
Station Falconara
Date/Time 13 December 2018 21:50:00
Wind direction °
Wind speed 01 kts
Lowest cloud amount scattered clouds
Temperature 5°C
Dew point 4°C
Humidity 93%
QNH 1012 hPa
Weather condition n/a

International airport serving Ancona, Italy.

Climatology

Humid “subtropical” climate (Köppen climate classification Cfa) - characterized by hot, humid summers and cool winters. Significant amounts of precipitation occur in all seasons in most areas. Winter rainfall (and sometimes snowfall) is associated with large storms that the westerlies steer from west to east. Most summer rainfall occurs during thunderstorms.

Maps

Terrain

Loading map...

Airport Layout

Loading map...


Accidents & Serious Incidents at or in vicinity of LIPY

None on SKYbrary